KIND Airport Diagram

We have created a template for each of the higher traffic airports in the vZID airspace. They include KCMH, KCRW, KCVG, KDAY, KIND, KLEX and KSDF. You wil find usefull information including the airport diagram, weather, and specific airport procedures.

KIND Weather

[Source: ADDS]
METAR
KIND 181154Z 25006KT 10SM SCT250 19/18 A2988 RMK AO2 SLP113 70003 T01940183 10217 20189 52014 =
TAF
KIND 181120Z 1812/1918 26004KT P6SM FEW250 FM181500 28006KT P6SM SCT045 FM190100 25004KT P6SM FEW250 FM190900 VRB03KT P6SM BKN100 FM191600 25004KT P6SM SCT030 =

KIND Operations

Calm Wind Configuration is runways 23L and 23R

Runway 23L typically departs south and east

Runway 23R typicall departs north and west

New Scenery is available at FlightSim.com and Blueprint Simulations. On initial contact, arriving aircraft should notify the the controller which scenery they have.

FedEx pilots should expect runway 23L or 5R.

 

JSN Epic template designed by JoomlaShine.com